Weather in Lynga

Russia / Udmurt Republic     57°17′46″N   53°01′42″E
temp.,
°C
wind,
m/s
gust,
m/s
humid.,
%
clouds,
%
prec.,
mm/h
press.,
hPa
HPBL,
m
18 april, sun
sun1801:00+2nnw22845 0.0 102328
04:00+1nnw23875 0.0 102364
07:00+3n28795 0.0 1022194
10:00+5ne5776100 0.0 1024930
13:00+5ne564954 0.0 10261387
16:00+5ne57435 0.0 10271532
19:00+2ne410565 0.0 1028750
22:000ene412685 0.0 1030592
19 april, mon
mon1901:00−1ene412655 0.0 1032459
04:00−2ene311645 0.0 1033418
07:00−1ene410490 0.0 1034930
10:00+2e69320 0.0 10341433
13:00+5e57300 0.0 10341606
16:00+5e56310 0.0 10331634
19:00+2ene26500 0.0 1034162
22:00−1ene27650 0.0 1035134
20 april, tue
tue2001:00−2ene26680 0.0 1036129
04:00−2ene22640 0.0 103640
07:000e13500 0.0 1036174
10:00+5ese22312 0.0 10361005
13:00+8se11280 0.0 10351322
16:00+9se10280 0.0 10331327
19:00+5ese11420 0.0 103210
22:00+2ese11520 0.0 103310
21 april, wed
wed2101:00+1e22560 0.0 103211
04:000ese11580 0.0 103311
07:00+3se24500 0.0 1033145
10:00+8se46365 0.0 1031861
13:00+10se573194 0.0 10301099
16:00+11sse5832100 0.0 10291420
19:00+9sse41142100 0.0 1028528
22:00+7sse41352100 0.0 1028489
22 april, thu
thu2201:00+6sse41453100 0.0 1028540
04:00+5s51354100 0.0 1028697
07:00+5s51265100 0.0 1028889
10:00+3s51196100 0.6 1029687
13:00+4s41096100 1.4 1030707
16:00+4s4997100 1.8 1030803
19:00+4s4997100 0.1 1031737
22:00+4s3992100 0.1 1031675